Terminal Aerodrome Forecast
Issued by NWS

Home | Current Version | Previous Version | Text Only | Print | Product List | Glossary On
Versions: 1 2 3 4 5 6 7 8 9 10 11 12 13 14 15 16 17 18
000
FTUS42 KJAX 240100 AAA
TAFVQQ
TAF AMD
KVQQ 240121Z 2401/2424 18010KT P6SM SCT025 BKN100
     FM240600 20006KT 4SM BR BKN005 WS015/22035KT
     FM241600 21012KT P6SM BKN015
     FM241800 23011KT P6SM BKN025=

USA.gov is the U.S. government's official web portal to all federal, state and local government web resources and services.